STARLINK-3554, 51872

Orbit data source: Space-Track

STARLINK-3554, 51872 is a payload satellite owned by SpaceX/Seattle (US) in LEO that was launched on Thu, 03 Mar 2022 UTC via an FALCON 9 launch vehicle from the Air Force Eastern Test Range (AFETR). Payload-class satellites include a variety of spacecraft equipped with specific instruments for various scientific and technological missions. These include communications satellites like Starlink; space stations such as the ISS; scientific satellites like the Hubble; Earth observation satellites from companies like Planet Labs, Umbra, and HawkEye 360; GPS; miniature CubeSats for education and research; and military/defense satellites.

Loading next visibility...
Identifier
51872, 2022-022W
Orbit
LEO
Country
Flag of USUS
Related business
Manufacturer
SpaceX/Seattle
Mission
Operational Commercial Communications
Bus & Motor
STARLINK, Unknown motor
Mass
297 kg wet, ~275 kg dry
Launch date (UTC)
2022-03-03 (4 years ago)
Launch vehicle
FALCON 9
Launch site
Air Force Eastern Test Range (AFETR)
Object type
Payload
Rocket body
Debris
Shape & HBR
Box + 1 Pan, 10.1 m
Radar Cross Section
13.562 m², Large (>1 m²)

Expand to show TLE details & history
Last TLE update: 3 days ago

TLE from 3 days ago
0 STARLINK-3554
1 51872U 22022W   26170.69771796 -.00000396  00000-0 -68256-5 0  9991
2 51872  53.1604 271.0767 0001051  84.9891 275.1221 15.08833248238511
Epoch: 2026-06-19T16:44Z
TLE epoch observation values (Epoch: 2026-06-19T16:44:42.831Z)
Latitude
0.00002°
Longitude
111.97528°
Altitude
540.591 km
Speed
7.593 km/s
True Right ascension
18h 04m 18s
True Declination
0° 00' 00"
Sunlit
Object was in full shadow at epoch
Visualization orbit readout
Latitude
Unknown
Longitude
Unknown
Altitude
Unknown
Speed
Unknown
Apparent Right ascension
Unknown
Apparent Declination
Unknown
Sunlit
N/A
Visualization observer readout
Local Sidereal Time
21:32:34
Azimuth
Unknown
Elevation
Unknown
Doppler factor
Unknown
Orbital elements
Apogee altitude
540.745 km
Perigee altitude
539.291 km
Semi-major axis
6,918.155 km
Eccentricity
0.00011
Inclination
53.1604°
RAAN
271.0767°
Arg. of periapsis
84.9891°
True anomaly
275.1101°
Mean anomaly
275.1221°
Eccentric anomaly
275.1161°
Mean motion
3.77188 °/min
Orbital period
95.44 mins
BSTAR
-0.0000068256
Loading maneuver chart data...
Computing Atmospheric mass density...
Loading historical data...
Loading historical data...
Loading historical data...
Loading historical data...
Loading historical data...
Loading historical data...
Loading historical data...

Documentation

Showing up to 5 results
|